DW3794 Weather Reports


time (UTC)temp
C
wind
direction
speed
KPH
gust
KPH
rain 1hr
cm
rain 24hr
cm
rain mn
cm
humidity
%
barometer
mb
20260504081503 5 157 6.4 11.3 0.00 0.00 0.00 51 1004.3
20260504044556 10 157 6.4 9.7 0.00 0.00 0.00 36 1005.5
20260504043038 10 157 0.0 1.6 0.00 0.00 0.00 35 1005.6
20260504041536 8 157 0.0 6.4 0.00 0.00 0.00 38 1005.4
20260504040035 8 157 11.3 16.1 0.00 0.00 0.00 43 1005.1
20260504034514 8 157 14.5 17.7 0.00 0.00 0.00 43 1005.0
20260504033055 7 157 14.5 17.7 0.00 0.00 0.00 45 1004.9
20260504031558 7 157 16.1 17.7 0.00 0.00 0.00 44 1004.8
20260504030031 9 157 14.5 17.7 0.00 0.00 0.00 38 1004.7
20260504024528 11 157 9.7 17.7 0.00 0.00 0.00 34 1004.4
20260504023006 12 157 11.3 14.5 0.00 0.00 0.00 28 1004.3
20260504021503 13 157 12.9 16.1 0.00 0.00 0.00 28 1004.3
20260504020041 15 157 12.9 16.1 0.00 0.00 0.00 26 1004.2
20260504014548 16 157 16.1 24.1 0.00 0.00 0.00 20 1004.2
20260504013019 17 157 14.5 20.9 0.00 0.00 0.00 19 1004.2
20260504011518 17 157 14.5 20.9 0.00 0.00 0.00 19 1004.3
20260504010006 17 157 12.9 22.5 0.00 0.00 0.00 19 1004.3
20260504004507 18 157 16.1 24.1 0.00 0.00 0.00 18 1004.3
20260504003009 18 157 19.3 29.0 0.00 0.00 0.00 17 1004.2
20260504001505 18 157 11.3 19.3 0.00 0.00 0.00 16 1004.3
20260504000004 18 157 14.5 20.9 0.00 0.00 0.00 16 1004.4
20260503234506 18 157 16.1 24.1 0.00 0.00 0.00 17 1004.4
20260503233003 17 157 16.1 27.4 0.00 0.00 0.00 17 1004.4
20260503231503 18 157 19.3 29.0 0.00 0.00 0.00 16 1004.3
20260503230045 18 156 22.5 29.0 0.00 0.00 0.00 16 1004.4
20260503224546 18 156 16.1 24.1 0.00 0.00 0.00 17 1004.4
20260503223026 18 156 19.3 29.0 0.00 0.00 0.00 15 1004.6
20260503221526 18 156 17.7 30.6 0.00 0.00 0.00 16 1004.7
20260503220006 18 156 20.9 32.2 0.00 0.00 0.00 17 1004.9
20260503214504 18 156 9.7 22.5 0.00 0.00 0.00 15 1005.1
20260503213046 19 156 19.3 35.4 0.00 0.00 0.00 17 1005.4
20260503211545 20 155 16.1 25.7 0.00 0.00 0.00 15 1005.4
20260503210025 19 155 20.9 35.4 0.00 0.00 0.00 17 1005.7
20260503204528 19 155 16.1 27.4 0.00 0.00 0.00 16 1005.7
20260503203010 20 154 11.3 27.4 0.00 0.00 0.00 15 1005.9
20260503201503 20 154 16.1 24.1 0.00 0.00 0.00 15 1006.1
20260503200042 18 153 17.7 29.0 0.00 0.00 0.00 16 1006.4
20260503194542 18 153 22.5 35.4 0.00 0.00 0.00 16 1006.5
20260503193036 18 153 16.1 24.1 0.00 0.00 0.00 15 1006.8
20260503191519 18 152 9.7 19.3 0.00 0.00 0.00 17 1006.9
20260503190106 18 157 3.2 14.5 0.00 0.00 0.00 16 1007.1
20260503184558 18 157 4.8 12.9 0.00 0.00 0.00 17 1007.5
20260503183052 19 156 9.7 24.1 0.00 0.00 0.00 17 1007.7
20260503181535 17 143 3.2 9.7 0.00 0.00 0.00 21 1007.9
20260503180018 16 148 4.8 12.9 0.00 0.00 0.00 25 1008.3
20260503174509 16 148 3.2 11.3 0.00 0.00 0.00 25 1008.6
20260503173055 15 147 8.0 12.9 0.00 0.00 0.00 26 1008.8
20260503171545 15 145 4.8 11.3 0.00 0.00 0.00 28 1009.0